Tracking 29487 objects as of 10-Sep-2024
HD Live streaming from Space Station
objects crossing your sky now

EKRAN 15

Track EKRAN 15 now!
EKRAN 15 is classified as:


NORAD ID: 16729
Int'l Code: 1986-038A
Perigee: 36,841.6 km
Apogee: 36,901.2 km
Inclination: 12.5 °
Period: 1,491.5 minutes
Semi major axis: 43242 km
RCS: 5.2216 m2 (large)
Launch date: May 24, 1986
Source: Commonwealth of Independent States (former USSR) (CIS)
Launch site: TYURATAM MISSILE AND SPACE COMPLEX (TTMTR)
Your satellite tracking list
Your tracking list is empty




NASA's NSSDC Master Catalog

Two Line Element Set (TLE):
1 16729U 86038A   24254.40813328 -.00000124  00000-0  00000+0 0  9993
2 16729  12.5035 326.4970 0006895 340.8995  19.6797  0.96546950112120
Source of the keplerian elements: AFSPC